This is the latest recevied weather packets stored in our database for station/object KY4LEX. If no packets are shown the sender has not sent any weather packets the latest 10 day(s).
| Time | Temp. | Humidity | Pressure | Rain* | Wind** | Luminosity | Snow |
|---|---|---|---|---|---|---|---|
| 1777949404 | 18.33° C | 61% | 1014.2 hPa | 0 mm | - | 0 W/m² | - |
| 1777949100 | 18.33° C | 61% | 1014.1 hPa | 0 mm | - | 0 W/m² | - |
| 1777948797 | 18.89° C | 61% | 1014.1 hPa | 0 mm | - | 0 W/m² | - |
| 1777948494 | 18.89° C | 60% | 1014 hPa | 0 mm | - | 0 W/m² | - |
| 1777948192 | 18.89° C | 61% | 1014 hPa | 0 mm | - | 0 W/m² | - |
| 1777947889 | 18.89° C | 62% | 1014.1 hPa | 0 mm | - | 0 W/m² | - |
| 1777947586 | 18.89° C | 61% | 1013.8 hPa | 0 mm | - | 0 W/m² | - |
| 1777947283 | 18.89° C | 62% | 1013.8 hPa | 0 mm | - | 0 W/m² | - |
| 1777946978 | 19.44° C | 62% | 1013.8 hPa | 0 mm | - | 0 W/m² | - |
| 1777946674 | 19.44° C | 59% | 1013.7 hPa | 0 mm | - | 0 W/m² | - |
| 1777946371 | 20° C | 58% | 1013.6 hPa | 0 mm | - | 0 W/m² | - |
| 1777946068 | 20° C | 59% | 1013.9 hPa | 0 mm | - | 0 W/m² | - |
| 1777945766 | 20° C | 60% | 1013.6 hPa | 0 mm | - | 0 W/m² | - |
| 1777945462 | 20.56° C | 56% | 1013.5 hPa | 0 mm | - | 0 W/m² | - |
| 1777945159 | 20.56° C | 56% | 1013.5 hPa | 0 mm | - | 0 W/m² | - |
| 1777944856 | 20.56° C | 55% | 1013.5 hPa | 0 mm | - | 0 W/m² | - |
| 1777944554 | 20.56° C | 54% | 1013.3 hPa | 0 mm | - | 0 W/m² | - |
| 1777944252 | 20.56° C | 55% | 1013.4 hPa | 0 mm | - | 0 W/m² | - |
| 1777943948 | 20.56° C | 52% | 1013.4 hPa | 0 mm | - | 0 W/m² | - |
| 1777943645 | 21.11° C | 53% | 1013.4 hPa | 0 mm | - | 0 W/m² | - |
| 1777943341 | 21.11° C | 53% | 1013.6 hPa | 0 mm | - | 0 W/m² | - |
| 1777943037 | 21.11° C | 53% | 1013.5 hPa | 0 mm | - | 0 W/m² | - |
| 1777942733 | 21.11° C | 53% | 1013.4 hPa | 0 mm | - | 0 W/m² | - |
| 1777942430 | 21.11° C | 52% | 1013.4 hPa | 0 mm | - | 0 W/m² | - |
| 1777942128 | 21.67° C | 50% | 1013.3 hPa | 0 mm | - | 0 W/m² | - |
* Rain latest hour (hover to see other rain measurements)
** Current wind speed in m/s (hover to see current wind gust speed)